SCP
0 0 0 0 0 0 0 0 0 0 0 0 0 0 0 0 0 0 0 0 0 0
0 0 0 0 0 0 0 0 0 0 0 0 0 0 0 0 0 0 0 0 0 0
0 0 0 0 0 0 0 0 0 0 0 0 0 0 0 0 0 0 0 0 0 0
0 0 0 0 0 0 0 0 0 0 0 0 0 0 0 0 0 0 0 0 0 0
0 0 0 0 0 0 0 0 0 0 0 0 0 0 0 0 0 0 0 0 0 0
0 0 0 0 0 0 0 0 0 0 0 0 0 0 0 0 0 0 0 0 0 0
0 0 0 0 0 0 0 0 0 0 0 0 0 0 0 0 0 0 0 -0 0 0
0 0 0 0 0 0 0 0 0 0 0 0 0 0 0 0 0 0 0 -0 -0 0
0 0 0 0 0 0 0 0 0 0 0 0 0 0 0 0 0 0 0 0 0 0
0 0 0 0 0 0 0 0 0 0 0 0 0 0 0 -0 -0 0 0 0 0 0
0 0 0 0 0 0 0 0 0 0 0 0 0 0 -0 -0 -0 -0 -0 -0 0 0
0 0 0 0 0 0 0 0 0 0 0 0 0 -0 -0 -0 -0 0 0 -0 -0 -0
0 0 0 0 0 0 0 0 0 0 0 0 0 0 0 0 0 0 0 0 0 0
0 0 0 0 0 0 0 0 0 0 0 0 0 0 -0 0 0 0 -0 0 0 0
Wind_Speed_500mb
82 80 75 77 83 85 84 89 82 67 67 74 75 78 89 91 98 93 96 97 95 97
76 74 75 75 78 81 82 81 83 79 85 94 94 88 75 75 78 92 93 99 95 94
70 68 63 65 73 77 77 78 80 76 81 82 82 82 97 88 88 80 88 89 95 91
66 63 60 62 69 71 72 72 74 75 74 78 85 80 77 90 95 83 87 90 83 89
62 56 55 60 59 60 66 66 68 73 70 71 67 76 80 80 74 83 72 86 75 81
55 50 53 56 58 60 64 66 67 70 70 70 68 75 79 76 80 85 79 60 69 63
50 50 51 53 58 61 63 65 65 65 66 64 65 67 66 70 71 72 71 87 83 62
49 49 49 54 59 56 59 59 58 57 57 55 54 57 58 61 68 67 74 72 70 70
47 44 49 52 53 52 53 52 47 41 34 34 42 45 46 47 56 63 59 61 64 55
46 45 48 46 48 48 47 45 39 29 22 25 28 32 40 41 46 41 53 58 60 44
44 44 42 40 37 38 43 43 38 26 15 14 16 20 26 36 40 46 51 40 51 50
39 41 41 37 37 42 40 39 33 19 11 6 2 11 23 32 33 26 35 41 44 53
35 33 36 33 33 34 30 30 25 21 12 9 5 4 13 20 26 21 28 28 55 47
31 29 28 29 27 25 25 25 21 24 23 17 16 19 19 14 20 19 27 26 27 37
Wind_Direction_500mb
299 297 291 288 287 284 279 274 266 260 256 251 250 253 256 255 250 249 245 243 241 243
305 300 291 284 285 282 280 278 276 275 270 260 252 250 246 249 251 245 244 243 242 241
309 301 300 294 285 284 282 283 279 275 265 266 267 257 250 247 245 250 244 243 239 239
306 301 303 295 290 290 290 287 280 275 269 263 259 261 259 251 249 248 245 239 239 233
310 313 309 302 309 308 302 297 291 284 277 269 257 254 253 248 247 245 248 234 241 227
317 321 318 317 318 313 306 301 294 287 280 273 261 253 252 249 244 242 238 231 240 228
327 328 327 325 320 316 316 311 302 290 281 275 266 257 249 244 241 244 248 244 235 239
327 330 329 329 325 327 323 316 307 295 283 273 264 255 250 241 239 239 242 245 245 241
325 327 329 330 332 332 329 326 320 308 287 267 260 252 248 241 238 240 240 242 236 242
330 332 331 337 336 339 336 335 336 319 292 273 261 248 237 234 233 230 226 234 238 241
342 337 338 342 342 344 339 342 334 330 319 280 262 234 231 229 236 237 238 236 226 230
343 338 342 347 346 347 349 354 351 337 339 356 288 227 227 221 226 239 223 218 229 205
349 347 346 354 352 354 -0 8 17 27 58 68 88 202 217 204 214 225 223 229 204 229
358 355 351 0 2 4 17 28 44 65 74 73 55 90 108 140 179 197 184 208 208 193
Wind_Speed_850mb
82 80 75 77 83 85 84 89 82 67 67 74 75 78 89 91 98 93 96 97 95 97
76 74 75 75 78 81 82 81 83 79 85 94 94 88 75 75 78 92 93 99 95 94
70 68 63 65 73 77 77 78 80 76 81 82 82 82 97 88 88 80 88 89 95 91
66 63 60 62 69 71 72 72 74 75 74 78 85 80 77 90 95 83 87 90 83 89
62 56 55 60 59 60 66 66 68 73 70 71 67 76 80 80 74 83 72 86 75 81
55 50 53 56 58 60 64 66 67 70 70 70 68 75 79 76 80 85 79 60 69 63
50 50 51 53 58 61 63 65 65 65 66 64 65 67 66 70 71 72 71 87 83 62
49 49 49 54 59 56 59 59 58 57 57 55 54 57 58 61 68 67 74 72 70 70
47 44 49 52 53 52 53 52 47 41 34 34 42 45 46 47 56 63 59 61 64 55
46 45 48 46 48 48 47 45 39 29 22 25 28 32 40 41 46 41 53 58 60 44
44 44 42 40 37 38 43 43 38 26 15 14 16 20 26 36 40 46 51 40 51 50
39 41 41 37 37 42 40 39 33 19 11 6 2 11 23 32 33 26 35 41 44 53
35 33 36 33 33 34 30 30 25 21 12 9 5 4 13 20 26 21 28 28 55 47
31 29 28 29 27 25 25 25 21 24 23 17 16 19 19 14 20 19 27 26 27 37
Wind_Direction_850mb
299 297 291 288 287 284 279 274 266 260 256 251 250 253 256 255 250 249 245 243 241 243
305 300 291 284 285 282 280 278 276 275 270 260 252 250 246 249 251 245 244 243 242 241
309 301 300 294 285 284 282 283 279 275 265 266 267 257 250 247 245 250 244 243 239 239
306 301 303 295 290 290 290 287 280 275 269 263 259 261 259 251 249 248 245 239 239 233
310 313 309 302 309 308 302 297 291 284 277 269 257 254 253 248 247 245 248 234 241 227
317 321 318 317 318 313 306 301 294 287 280 273 261 253 252 249 244 242 238 231 240 228
327 328 327 325 320 316 316 311 302 290 281 275 266 257 249 244 241 244 248 244 235 239
327 330 329 329 325 327 323 316 307 295 283 273 264 255 250 241 239 239 242 245 245 241
325 327 329 330 332 332 329 326 320 308 287 267 260 252 248 241 238 240 240 242 236 242
330 332 331 337 336 339 336 335 336 319 292 273 261 248 237 234 233 230 226 234 238 241
342 337 338 342 342 344 339 342 334 330 319 280 262 234 231 229 236 237 238 236 226 230
343 338 342 347 346 347 349 354 351 337 339 356 288 227 227 221 226 239 223 218 229 205
349 347 346 354 352 354 -0 8 17 27 58 68 88 202 217 204 214 225 223 229 204 229
358 355 351 0 2 4 17 28 44 65 74 73 55 90 108 140 179 197 184 208 208 193